Le nostre stazioni meteo in Italia

Pubblicità
Il mio iltempo24.it
Capo Frasca, Italia (16539): Temperatura & dewpoint: 11.02.2019 13:00:00 - 17.02.2019 13:00:00 (CET)Capo Frasca, Italia (16539): velocità del vento: 11.02.2019 13:00:00 - 17.02.2019 13:00:00 (CET)Capo Frasca, Italia (16539): direzione del vento: 11.02.2019 13:00:00 - 17.02.2019 13:00:00 (CET)Capo Frasca, Italia (16539): reduced air pressure: 11.02.2019 13:00:00 - 17.02.2019 13:00:00 (CET)Capo Frasca, Italia (16539): visibility: 11.02.2019 13:00:00 - 17.02.2019 13:00:00 (CET)
Data & Tempo tt [°C] td [°C] ff [km/h] ff [kn] dd ppp [hPa] vv [km]
17.02.2019 13:00:00 14,8 11,0 16 9 SE 1029,5 20
17.02.2019 12:00:00 - - - - - - -
17.02.2019 11:00:00 - - - - - - -
17.02.2019 10:00:00 9,2 8,1 9 5 E 1030,2 25
17.02.2019 09:00:00 - - - - - - -
17.02.2019 08:00:00 - - - - - - -
17.02.2019 07:00:00 4,2 3,3 11 6 ESE 1030,0 20
17.02.2019 06:00:00 - - - - - - -
17.02.2019 05:00:00 - - - - - - -
17.02.2019 04:00:00 - - - - - - -
17.02.2019 03:00:00 - - - - - - -
17.02.2019 02:00:00 - - - - - - -
17.02.2019 01:00:00 - - - - - - -
17.02.2019 00:00:00 - - - - - - -
16.02.2019 23:00:00 - - - - - - -
16.02.2019 22:00:00 - - - - - - -
16.02.2019 21:00:00 - - - - - - -
16.02.2019 20:00:00 - - - - - - -
16.02.2019 19:00:00 10,4 9,8 8 4 OSO 1029,9 20
16.02.2019 18:00:00 - - - - - - -
16.02.2019 17:00:00 - - - - - - -
16.02.2019 16:00:00 13,8 13,0 11 6 O 1029,9 20
16.02.2019 15:00:00 - - - - - - -
16.02.2019 14:00:00 - - - - - - -
16.02.2019 13:00:00 13,6 11,5 8 4 O 1030,4 20
16.02.2019 12:00:00 - - - - - - -
16.02.2019 11:00:00 - - - - - - -
16.02.2019 10:00:00 10,2 7,4 15 8 SE 1029,9 20
16.02.2019 09:00:00 - - - - - - -
16.02.2019 08:00:00 - - - - - - -
16.02.2019 07:00:00 3,2 2,0 11 6 ESE 1027,5 20
16.02.2019 06:00:00 - - - - - - -
16.02.2019 05:00:00 - - - - - - -
16.02.2019 04:00:00 - - - - - - -
16.02.2019 03:00:00 - - - - - - -
16.02.2019 02:00:00 - - - - - - -
16.02.2019 01:00:00 - - - - - - -
16.02.2019 00:00:00 - - - - - - -
15.02.2019 23:00:00 - - - - - - -
15.02.2019 22:00:00 - - - - - - -
15.02.2019 21:00:00 - - - - - - -
15.02.2019 20:00:00 - - - - - - -
15.02.2019 19:00:00 10,8 10,0 8 4 O 1027,5 20
15.02.2019 18:00:00 - - - - - - -
15.02.2019 17:00:00 - - - - - - -
15.02.2019 16:00:00 13,8 13,0 11 6 NNO 1027,7 20
15.02.2019 15:00:00 - - - - - - -
15.02.2019 14:00:00 - - - - - - -
15.02.2019 13:00:00 11,6 8,6 9 5 NNO 1029,1 30
15.02.2019 12:00:00 - - - - - - -
15.02.2019 11:00:00 - - - - - - -
15.02.2019 10:00:00 8,2 6,8 5 3 NE 1030,6 20
15.02.2019 09:00:00 - - - - - - -
15.02.2019 08:00:00 - - - - - - -
15.02.2019 07:00:00 2,6 1,9 8 4 ENE 1030,9 -
15.02.2019 06:00:00 - - - - - - -
15.02.2019 05:00:00 - - - - - - -
15.02.2019 04:00:00 - - - - - - -
15.02.2019 03:00:00 - - - - - - -
15.02.2019 02:00:00 - - - - - - -
15.02.2019 01:00:00 - - - - - - -
15.02.2019 00:00:00 - - - - - - -
14.02.2019 23:00:00 - - - - - - -
14.02.2019 22:00:00 - - - - - - -
14.02.2019 21:00:00 - - - - - - -
14.02.2019 20:00:00 - - - - - - -
14.02.2019 19:00:00 10,0 9,7 9 5 OSO 1032,5 25
14.02.2019 18:00:00 - - - - - - -
14.02.2019 17:00:00 - - - - - - -
14.02.2019 16:00:00 13,0 11,4 13 7 OSO 1032,6 30
14.02.2019 15:00:00 - - - - - - -
14.02.2019 14:00:00 - - - - - - -
14.02.2019 13:00:00 14,4 9,0 9 5 SO 1033,8 20
14.02.2019 12:00:00 - - - - - - -
14.02.2019 11:00:00 - - - - - - -
14.02.2019 10:00:00 7,6 3,7 9 5 E 1033,6 20
14.02.2019 09:00:00 - - - - - - -
14.02.2019 08:00:00 - - - - - - -
14.02.2019 07:00:00 6,2 4,0 9 5 ENE 1032,9 30
14.02.2019 06:00:00 - - - - - - -
14.02.2019 05:00:00 - - - - - - -
14.02.2019 04:00:00 - - - - - - -
14.02.2019 03:00:00 - - - - - - -
14.02.2019 02:00:00 - - - - - - -
14.02.2019 01:00:00 - - - - - - -
14.02.2019 00:00:00 - - - - - - -
13.02.2019 23:00:00 - - - - - - -
13.02.2019 22:00:00 - - - - - - -
13.02.2019 21:00:00 - - - - - - -
13.02.2019 20:00:00 - - - - - - -
13.02.2019 19:00:00 9,2 8,9 11 6 NNO 1032,4 20
13.02.2019 18:00:00 - - - - - - -
13.02.2019 17:00:00 - - - - - - -
13.02.2019 16:00:00 13,0 11,4 13 7 NO 1031,8 20
13.02.2019 15:00:00 - - - - - - -
13.02.2019 14:00:00 - - - - - - -
13.02.2019 13:00:00 12,0 9,7 8 4 ONO 1032,6 20
13.02.2019 12:00:00 - - - - - - -
13.02.2019 11:00:00 - - - - - - -
13.02.2019 10:00:00 10,0 9,2 2 1 E 1032,3 20
13.02.2019 09:00:00 - - - - - - -
13.02.2019 08:00:00 - - - - - - -
13.02.2019 07:00:00 4,0 3,3 4 2 E 1030,6 20
13.02.2019 06:00:00 - - - - - - -
13.02.2019 05:00:00 - - - - - - -
13.02.2019 04:00:00 - - - - - - -
13.02.2019 03:00:00 - - - - - - -
13.02.2019 02:00:00 - - - - - - -
13.02.2019 01:00:00 - - - - - - -
13.02.2019 00:00:00 - - - - - - -
12.02.2019 23:00:00 - - - - - - -
12.02.2019 22:00:00 - - - - - - -
12.02.2019 21:00:00 - - - - - - -
12.02.2019 20:00:00 - - - - - - -
12.02.2019 19:00:00 10,2 8,6 16 9 NNO 1026,6 20
12.02.2019 18:00:00 - - - - - - -
12.02.2019 17:00:00 - - - - - - -
12.02.2019 16:00:00 13,4 6,5 24 13 NNO 1025,8 25
12.02.2019 15:00:00 - - - - - - -
12.02.2019 14:00:00 - - - - - - -
12.02.2019 13:00:00 12,2 9,2 13 7 NNE 1026,2 25
12.02.2019 12:00:00 - - - - - - -
12.02.2019 11:00:00 - - - - - - -
12.02.2019 10:00:00 - - - - - - -
12.02.2019 09:00:00 - - - - - - -
12.02.2019 08:00:00 - - - - - - -
12.02.2019 07:00:00 5,2 4,8 4 2 E 1023,8 20
12.02.2019 06:00:00 - - - - - - -
12.02.2019 05:00:00 - - - - - - -
12.02.2019 04:00:00 - - - - - - -
12.02.2019 03:00:00 - - - - - - -
12.02.2019 02:00:00 - - - - - - -
12.02.2019 01:00:00 - - - - - - -
12.02.2019 00:00:00 - - - - - - -
11.02.2019 23:00:00 - - - - - - -
11.02.2019 22:00:00 - - - - - - -
11.02.2019 21:00:00 - - - - - - -
11.02.2019 20:00:00 - - - - - - -
11.02.2019 19:00:00 10,2 7,4 55 30 N 1020,6 20
11.02.2019 18:00:00 - - - - - - -
11.02.2019 17:00:00 - - - - - - -
11.02.2019 16:00:00 11,4 8,1 46 25 NNO 1019,9 25
11.02.2019 15:00:00 - - - - - - -
11.02.2019 14:00:00 - - - - - - -
11.02.2019 13:00:00 12,8 9,8 34 18 NNO 1020,5 25

tt = Temperatura
td = dewpoint
ff = velocità del vento
dd = direzione del vento
ppp = reduced air pressure
vv = visibility

Stazioni seguenti

WeatherPro
AMSI
MeteoEarth